Home > Weather > Narvik > Past weeks

Flag for Norway Weather for the Past 2 Weeks in Narvik, Norway

Now
57 °F

Sunny.


Feels Like: 55 °F
Forecast: 34 / 49 °F
Wind: 8 mph from North

Location: Narvik Iii/Framnes

Current Time: May 2, 2016 at 1:41:39 PM

Latest Report: May 2, 2016 at 12:50 PM


Visibility: 10 mi

Pressure: 29.98 "Hg

Humidity: 44%

Dew Point: 36 °F

Location of NarvikLocation

Historic Weather in Narvik — Graph

°F

Narvik Temperature Yesterday

Maximum temperature yesterday: 61 °F (at 4:50 PM)
Minimum temperature yesterday: 48 °F (at 9:50 PM)
Average temperature yesterday: 56 °F

High & Low Weather Summary for the Past Weeks

 TemperatureHumidityPressure
High61 °F (Apr 29, 3:50 PM)93% (Apr 23, 6:20 AM)30.36 "Hg (Apr 23, 6:20 AM)
Low30 °F (Apr 19, 5:50 AM)27% (Apr 25, 2:50 PM)29.47 "Hg (Apr 18, 6:50 AM)
Average45 °F53%29.88 "Hg
* Reported Apr 17 1:50 PM — May 2 11:50 AM, Narvik, Weather by CustomWeather, © 2016

Note: Actual official high and low records may vary slightly from our data, if they occured in-between our weather recording intervals... More about our weather records

Advertising

Narvik Weather History for the Previous 24 Hours

Scroll right to see more
 ConditionsComfort  
Time TempWeatherWind HumidityBarometerVisibility
11:50 AM
Mon, May 2
55 °FSunny.9 mph51%30.01 "Hg10 mi
10:50 AM59 °FSunny.5 mph36%30.01 "Hg10 mi
9:50 AM57 °FSunny.9 mph39%30.04 "Hg10 mi
8:50 AM54 °FSunny.9 mph44%30.04 "Hg10 mi
7:50 AM48 °FSunny.5 mph58%30.07 "Hg10 mi
6:50 AM45 °FSunny.No wind61%30.07 "Hg10 mi
5:50 AM43 °FSunny.5 mph66%30.07 "Hg10 mi
9:50 PM
Sun, May 1
48 °FSunny.6 mph54%30.15 "Hg10 mi
8:50 PM54 °FSunny.6 mph51%30.18 "Hg10 mi
7:50 PM55 °FSunny.6 mph47%30.18 "Hg10 mi
6:50 PM57 °FSunny.6 mph39%30.18 "Hg10 mi
5:50 PM61 °FSunny.6 mph34%30.18 "Hg10 mi
4:50 PM61 °FSunny.8 mph39%30.18 "Hg10 mi
3:50 PM57 °FSunny.7 mph48%30.21 "Hg10 mi
2:50 PM57 °FSunny.7 mph39%30.21 "Hg10 mi
1:50 PM55 °FSunny.8 mph44%30.24 "Hg10 mi
Weather by CustomWeather, © 2016

See weather overviewHow to use our weather pages